SL-12 R/B(2)

Satellite information

Favourite Embed

Satellite Type and Status

ROCKET BODYIN ORBIT

Key statistics

Satellite SL-12 R/B(2) at a glance.

Uptime

5608

Days in orbit

Revolutions

≈ 2.1

Per day

Orbit

MEO

Medium Earth Orbit

Inclination

65.6

Latest

Satellite identification and parameters

Extended collection of information and parameters for SL-12 R/B(2).

Object identification

Identified? True

Debris? False

Object name: SL-12 R/B(2)

International designator: 2010-007D

Object number (NORAD): 36403

Object ID (CCSDS): 36403

Country: COMMONWEALTH OF INDEPENDENT STATES (CIS)

Current information (Y/N): Y

RCS size: LARGE

Orbital parameters

Period: 675.057 minutes

Inclination: 65.6136 deg

SMA: 25491.019 km

Apoapsis: 19162.092 km

Periapsis: 19063.676 km

RAAN: 325.7605 deg

Eccentricy: 0.0019304

Argument of periapsis: 188.5927 deg

Mean anomaly: 218.3451 deg

Mean motion: 2.13315282 rev/day

Mean motion (dot): -0.00000074 rev/day2

B* drag term: 0.0 1/REarth

Two-line elements (TLE)

Creation date: July 7, 2025, 6:46 a.m.

Reference frame: TEME

Reference center: EARTH

Epoch: July 6, 2025, 10:30 p.m. UTC

TLE line 0: 0 SL-12 R/B(2)

TLE line 1: 1 36403U 10007D 25187.93771081 -.00000074 00000-0 00000+0 0 9994

TLE line 2: 2 36403 65.6136 325.7605 0019304 188.5927 218.3451 2.13315282119563

Live tracking on map

Real-time ground track for satellite SL-12 R/B(2).

In-orbit conjunctions

A list of the most updated potential collisions computed for object SL-12 R/B(2).

Target Orbit TCA Probability of collision Miss distance Type
COSMOS 1521 (GLONASS) MEO 2025-06-08 09:27:14 TBA 2275.0 (m) PAYLOAD
COSMOS 1884 (GLONASS) MEO 2025-05-15 06:03:32 TBA 2435.0 (m) PAYLOAD

Associated space launch

Glonass-M, also known as Uragan-M, are the second generation of Uragan satellite design used for GLONASS satellite navigation system. GLONASS is a Russian space-based navigation system comparable to the similar GPS and Galileo systems. This generation improves on accuracy, power consumption and design life. Each satellite weighs 1415 kg, is equipped with 12 L-band antennas, and has an operational lifetime of 7 years.

SL-12 R/B(2) was lifted into orbit during the mission ‘Proton-M/DM-2 Enhanced | 3 x Glonass-M (Kosmos 2459, Kosmos 2460, Kosmos 2461)’, on board a Proton-M space rocket.

The launch took place on March 1, 2010, 9:19 p.m. from 81/24 (81P).

For more information about the launch, click the button.

Launch to space Proton-M/DM-2 Enhanced | 3 x Glonass-M (Kosmos 2459, Kosmos 2460, Kosmos 2461)
Proton-M/DM-2 Enhanced | 3 x Glonass-M (Kosmos 2459, Kosmos 2460, Kosmos 2461)

Agency: N/A

Status: Launch Successful

Launch date: March 1, 2010, 9:19 p.m. UTC

Rocket: Proton-M

Launch pad: 81/24 (81P)

Location: Baikonur Cosmodrome, Republic of Kazakhstan

...

Latest news about this satellite

There are no fresh news available about this satellite. Check back as we update our databases every day.


Newsletter sign-up

Weekly statistics, charts and insights to help you stay on top of the space industry.